Vertical_Velocity
6 2 3 2 -0 -4 -2 -0 -2 0 -1 -1 1 -2 1 0 2 3 -1 -4 2 2 0 4 -0 1 2
-3 -3 5 1 6 1 -0 3 3 2 -5 -2 1 -2 -3 -2 2 2 -1 0 -0 2 2 1 1 0 1
-1 2 0 1 2 -0 3 1 2 3 -4 -1 -3 3 -2 -2 0 1 1 -3 1 0 1 2 2 1 -0
1 -5 -1 -0 1 -1 -0 5 1 2 -1 -1 -2 -0 5 -6 3 3 -1 -0 -0 1 2 2 1 -0 0
-0 -2 4 2 2 2 1 2 0 -1 -2 4 -1 -1 -1 0 1 1 0 0 -1 1 1 0 -0 1 -1
-1 1 2 3 -0 1 1 3 -4 -6 4 3 -2 1 0 -0 -1 -0 1 1 1 0 -0 -0 0 -0 -2
1 -2 2 -0 3 0 -2 -1 4 3 2 1 -1 0 5 -2 -1 0 2 2 -0 0 -1 -1 -0 -1 -1
0 0 5 1 -1 3 2 1 2 2 2 4 2 3 2 -1 -0 2 2 1 -0 1 -1 -1 -1 -1 -2
-1 -2 2 1 2 0 -0 3 3 0 1 4 1 3 2 0 1 3 1 0 -0 -1 -2 -2 -1 -2 -3
-1 -0 1 1 1 2 2 2 2 0 3 2 1 6 -1 1 2 2 0 -1 -1 0 -2 -1 -0 -2 -1
-1 0 -1 -1 -1 1 0 2 -0 1 -0 1 7 -1 -1 1 3 2 -0 0 0 -1 -1 -1 -1 -0 -2
-0 -1 -1 0 1 -0 -1 1 1 0 2 7 1 -0 1 2 2 0 0 0 -0 -2 0 -2 -1 1 -0
1 1 -0 -0 0 1 0 1 1 2 7 2 1 0 1 1 1 -0 1 0 -2 -0 -0 -2 0 0 -1
2 -0 -0 -1 -1 -2 -1 -0 -1 7 2 -2 1 1 -0 1 0 1 1 1 -2 0 -1 -1 -1 -1 1
-1 -1 -1 -1 -2 1 1 1 5 3 1 -2 0 -0 -0 1 -0 2 -1 -1 4 1 -2 -4 -2 1 2
-1 -0 2 1 -1 -1 2 3 2 2 -1 -2 -0 -1 -1 -1 -2 -1 -1 1 0 -0 2 3 -10 2 4
-0 -0 1 1 0 3 2 2 2 1 -0 -2 -2 -2 -2 -1 -0 -1 -0 0 -1 -1 -1 3 -1 -16 3
Height
5746 5743 5741 5739 5737 5736 5734 5733 5731 5730 5728 5725 5722 5720 5720 5717 5718 5716 5716 5714 5713 5713 5713 5713 5713 5713 5712
5735 5734 5732 5729 5728 5726 5724 5723 5722 5721 5719 5717 5714 5712 5712 5710 5709 5709 5709 5709 5707 5707 5707 5708 5708 5707 5706
5722 5722 5721 5719 5717 5715 5714 5713 5712 5711 5710 5708 5706 5705 5705 5702 5702 5702 5703 5702 5701 5701 5701 5701 5701 5701 5700
5711 5710 5709 5707 5705 5703 5702 5702 5702 5702 5700 5699 5699 5697 5696 5694 5694 5695 5695 5695 5694 5694 5695 5695 5695 5694 5694
5700 5698 5695 5693 5693 5691 5691 5691 5692 5691 5691 5689 5689 5688 5688 5688 5687 5687 5688 5688 5688 5688 5688 5688 5688 5688 5687
5687 5683 5681 5680 5680 5679 5678 5679 5680 5680 5679 5679 5679 5679 5679 5679 5678 5679 5680 5681 5681 5681 5682 5681 5681 5681 5679
5671 5669 5667 5666 5667 5667 5667 5667 5668 5668 5668 5669 5668 5668 5669 5670 5670 5671 5672 5673 5674 5675 5675 5674 5674 5672 5671
5658 5655 5654 5654 5653 5654 5655 5656 5657 5658 5658 5658 5658 5659 5661 5661 5662 5663 5665 5666 5667 5667 5667 5666 5665 5664 5663
5645 5644 5643 5642 5642 5643 5644 5645 5646 5646 5647 5647 5647 5650 5652 5653 5654 5656 5657 5658 5659 5659 5659 5658 5656 5655 5654
5634 5632 5632 5631 5631 5632 5633 5634 5634 5636 5636 5638 5639 5641 5643 5645 5647 5649 5650 5651 5651 5651 5651 5649 5648 5646 5644
5622 5622 5621 5621 5622 5622 5623 5623 5624 5625 5626 5629 5631 5633 5636 5638 5640 5641 5642 5643 5643 5643 5642 5640 5638 5637 5634
5613 5612 5611 5611 5612 5613 5613 5613 5614 5616 5618 5621 5623 5626 5628 5630 5631 5633 5634 5635 5635 5634 5633 5631 5629 5627 5624
5603 5602 5602 5602 5603 5604 5603 5603 5605 5608 5610 5612 5615 5618 5620 5621 5622 5624 5625 5626 5625 5625 5623 5621 5619 5617 5614
5593 5593 5593 5593 5593 5593 5594 5595 5598 5601 5603 5604 5607 5610 5611 5613 5614 5615 5616 5616 5615 5615 5613 5611 5609 5606 5604
5584 5584 5584 5584 5584 5585 5586 5588 5591 5593 5595 5596 5599 5601 5602 5604 5604 5605 5606 5606 5606 5605 5603 5600 5598 5595 5593
5575 5575 5575 5576 5576 5577 5579 5581 5583 5584 5586 5588 5590 5591 5593 5594 5594 5595 5595 5595 5595 5594 5592 5589 5586 5584 5582
5567 5567 5567 5567 5568 5570 5572 5573 5574 5575 5577 5578 5580 5582 5583 5584 5585 5585 5584 5584 5583 5582 5580 5577 5574 5571 5569